SCP
-0 0 0 0 0 0 0 0 0 0 0 0 0 0 0 0 -0 -0 -0 -0 -0 -0 -0 -0 0 0 0 0 0 0 0 0 0 0 0 0 0 0 0 0 0 0 -0
-0 0 0 0 0 0 0 0 0 0 0 0 0 0 0 0 -0 -0 -0 -0 -0 -0 -0 -0 -0 0 -0 0 0 0 0 0 0 0 0 0 0 0 0 0 0 0 0
0 0 0 0 0 0 0 0 0 0 0 0 0 0 0 0 -0 -0 -0 -0 -0 -0 -0 -0 -0 -0 -0 0 0 0 0 0 0 0 0 0 0 0 0 0 0 0 0
0 0 0 0 0 0 0 0 0 0 0 0 0 0 0 0 0 0 0 0 0 0 0 0 0 -0 0 0 0 0 0 0 0 0 0 0 0 0 0 0 0 0 0
0 0 0 0 0 0 0 0 0 0 0 0 0 0 0 0 0 0 0 0 0 0 0 0 0 0 0 0 0 0 0 0 0 0 0 0 0 0 0 0 0 0 0
0 0 0 0 0 0 0 0 0 0 0 0 0 0 0 0 0 0 0 0 0 0 0 0 0 0 0 0 0 0 0 0 0 0 0 0 0 0 0 0 0 0 0
0 0 0 0 0 0 0 0 0 0 0 0 0 0 0 0 0 0 0 0 0 0 0 0 0 0 0 0 0 0 0 0 0 0 0 0 0 0 0 0 0 0 0
0 0 0 0 0 0 0 0 0 0 0 0 0 0 0 0 0 0 0 0 0 0 0 0 0 0 0 0 0 0 0 0 0 0 0 0 0 0 0 0 0 0 0
0 0 0 0 0 0 0 0 0 0 0 0 0 0 0 0 0 0 0 0 0 0 0 0 0 0 0 0 0 0 0 0 0 0 0 0 0 0 0 0 0 0 0
0 0 0 0 0 0 0 0 0 0 0 0 0 0 0 0 0 0 0 0 0 0 0 0 0 0 0 0 0 0 0 0 0 0 0 0 0 0 0 0 0 0 0
0 0 0 0 0 0 0 0 0 0 0 0 0 0 0 0 0 0 0 0 0 0 0 0 0 0 0 0 0 0 0 0 0 0 0 0 0 0 0 0 0 0 0
0 0 0 0 0 0 0 0 0 0 0 0 0 0 0 0 0 0 0 0 0 0 0 0 0 0 0 0 0 0 0 0 0 0 0 0 0 0 0 0 0 0 0
0 0 0 0 0 0 0 0 0 0 0 0 0 0 0 0 0 0 0 0 0 0 0 0 0 0 0 0 0 0 0 0 0 0 0 0 0 0 0 0 0 0 0
0 0 0 0 0 0 0 0 0 0 0 0 0 0 0 0 0 0 0 0 0 0 0 0 0 0 0 0 0 0 0 0 0 0 0 0 0 0 0 0 0 0 0
0 0 -0 -0 0 0 0 0 0 0 0 0 0 0 0 0 0 0 0 0 0 0 0 0 0 0 0 0 0 0 0 0 0 0 0 0 0 0 0 0 0 0 0
0 0 -0 -0 0 0 0 0 0 0 0 0 0 0 0 0 0 0 0 0 0 0 0 0 0 0 0 0 0 0 0 0 0 0 0 0 0 0 0 0 0 0 0
0 0 0 0 0 0 0 0 0 0 0 0 0 0 0 0 0 0 0 0 0 0 0 0 0 0 0 0 0 0 0 0 0 0 0 0 0 0 0 0 0 0 0
0 0 0 0 0 0 0 0 0 0 0 0 0 0 0 0 0 0 0 0 0 0 0 0 0 0 0 0 0 0 0 0 0 0 0 0 0 0 0 0 0 0 0
0 0 0 0 0 0 0 0 0 0 0 0 0 0 0 0 0 0 0 0 0 0 0 0 0 0 0 0 0 0 0 0 0 0 0 0 0 0 0 0 0 0 0
0 0 0 0 0 0 0 0 0 0 0 0 0 0 0 0 0 0 0 0 0 0 0 0 0 0 0 0 0 0 0 0 0 0 0 0 0 0 0 0 0 0 0
0 0 0 0 0 0 0 0 0 0 0 0 0 0 0 0 0 0 0 0 0 0 0 0 0 0 0 0 0 0 0 0 0 0 0 0 0 0 0 0 0 0 0
0 0 0 0 0 0 0 0 0 0 0 0 0 0 0 0 0 0 0 0 0 0 0 0 0 0 0 0 0 0 0 0 0 0 0 0 0 0 0 0 0 0 0
0 0 0 0 0 0 0 0 0 0 0 0 0 0 0 0 0 0 0 0 0 0 0 0 0 0 0 0 0 0 0 0 0 0 0 0 0 0 0 0 0 0 0
0 0 0 0 0 0 0 0 0 0 0 0 0 0 0 0 0 0 0 0 0 0 0 0 0 0 0 0 0 0 0 0 0 0 0 0 0 0 0 0 0 0 0
0 0 0 0 0 0 0 -0 0 0 0 0 0 0 0 0 0 0 0 0 0 0 0 0 0 0 0 0 0 0 0 0 0 0 0 0 0 0 0 0 0 0 0
0 0 0 0 0 0 0 -0 0 0 0 0 0 0 0 0 0 0 0 0 0 0 0 0 0 0 0 0 0 0 0 0 0 0 0 0 0 0 0 0 -0 0 0
Wind_Speed
6 6 7 7 6 5 6 5 5 4 3 3 2 2 2 1 2 2 3 4 4 4 4 3 4 4 3 3 4 3 4 4 3 3 4 4 4 4 4 4 4 4 4
5 6 7 6 6 7 6 6 5 4 4 3 2 2 2 1 1 1 3 3 4 4 4 4 3 3 3 5 5 4 3 3 4 2 3 4 5 5 5 4 4 5 4
10 8 7 7 7 7 7 6 5 5 4 4 3 3 3 3 3 3 2 3 3 4 4 4 3 3 3 3 3 3 3 3 3 3 3 2 1 3 4 4 4 5 4
10 9 8 8 8 8 7 7 6 5 4 5 5 5 3 2 1 0 1 2 3 3 4 4 4 3 3 3 3 3 2 3 3 3 2 1 2 1 3 4 4 5 4
12 11 10 9 8 8 7 7 6 5 4 5 6 6 4 2 1 1 2 2 2 3 3 3 3 3 3 3 3 4 4 2 2 2 2 2 2 2 1 2 4 4 3
11 10 9 7 7 6 7 7 7 5 4 5 5 6 5 4 3 2 1 1 2 2 3 3 3 3 2 3 3 3 4 3 3 2 2 2 1 1 1 0 2 3 4
11 10 10 9 8 8 8 7 8 5 4 5 5 5 5 5 4 3 2 1 1 1 1 2 2 2 2 2 3 3 3 3 3 2 2 1 1 0 1 1 1 2 3
11 12 12 11 10 10 9 9 8 6 5 5 4 4 4 3 3 3 3 2 1 1 0 1 2 2 2 3 3 3 2 3 3 3 2 2 2 1 1 1 1 2 3
12 11 11 11 11 11 10 10 9 7 6 5 5 4 4 4 3 3 2 2 1 1 1 2 2 2 2 3 3 2 2 3 2 2 2 2 2 2 1 1 1 2 1
10 10 10 10 10 10 9 9 9 8 6 6 5 5 4 4 4 3 3 2 1 1 2 2 2 2 3 3 3 2 2 3 2 2 3 2 2 2 2 1 1 1 2
11 10 10 9 9 8 8 8 7 6 6 6 5 5 4 4 4 3 3 2 2 2 2 2 2 2 2 2 3 2 2 3 3 3 3 3 2 2 2 2 2 1 1
10 10 10 9 8 9 8 8 8 7 6 6 6 5 5 4 4 3 2 3 2 2 2 2 3 2 2 2 2 2 2 2 2 2 2 2 2 3 2 2 2 1 0
8 7 8 9 10 9 8 8 8 8 7 6 6 6 5 5 4 4 3 3 3 2 2 3 2 2 2 2 1 2 1 1 1 1 1 2 1 2 2 1 1 1 1
9 9 9 9 9 9 9 8 8 8 7 7 7 7 6 6 5 4 4 4 3 3 3 2 2 2 1 1 1 2 2 2 2 1 1 1 1 1 1 1 1 1 2
8 10 10 9 8 8 8 8 8 7 7 7 7 7 6 5 5 4 4 4 3 3 3 2 1 1 1 1 1 1 1 1 2 2 2 2 2 2 1 1 1 0 1
10 10 10 9 10 9 9 8 8 8 8 8 8 7 6 6 5 5 4 4 3 2 2 2 2 1 0 0 1 1 1 0 1 1 2 2 3 4 4 4 2 1 1
10 10 10 11 11 10 10 11 10 8 8 8 7 7 7 6 6 5 5 4 4 3 2 2 2 1 2 2 1 1 1 0 1 1 1 2 3 3 2 4 4 4 5
9 9 9 8 8 8 8 8 7 8 8 8 8 7 7 7 6 5 5 4 3 3 3 3 3 2 3 3 2 1 1 0 1 2 2 1 2 2 2 2 3 3 4
7 8 8 8 7 7 8 8 8 7 8 8 8 8 8 8 7 6 6 4 4 3 3 3 3 3 4 5 4 2 1 0 2 2 2 2 2 5 4 1 2 4 5
4 4 4 5 6 6 7 9 8 8 9 9 9 8 8 9 8 8 6 4 4 4 4 3 3 4 4 6 6 3 1 1 2 2 2 4 4 6 4 2 2 3 5
2 4 5 5 5 5 7 8 8 10 10 7 6 6 7 8 8 7 5 4 4 3 3 4 4 4 6 7 8 6 3 3 2 2 3 4 7 7 7 5 3 6 6
2 4 4 3 3 5 6 6 7 7 5 6 6 6 6 7 6 6 5 4 5 4 4 3 4 4 5 6 7 9 7 6 4 4 4 4 8 9 8 6 7 10 7
2 3 4 3 2 3 5 6 5 4 6 6 6 6 5 5 5 6 6 4 4 4 4 4 5 5 4 5 9 10 9 8 5 4 7 8 9 8 6 8 10 7 3
2 3 4 4 2 1 2 4 3 4 6 6 5 4 5 4 4 4 5 5 5 5 5 5 5 5 4 4 4 4 5 6 5 4 6 8 8 6 6 7 5 3 3
2 3 4 3 2 1 1 1 3 5 5 5 4 4 4 4 4 4 5 6 6 7 7 7 6 5 6 8 9 6 5 4 5 3 2 2 2 3 3 4 4 3 3
3 3 3 2 2 2 1 0 2 4 5 4 3 3 3 3 3 3 3 5 6 8 10 10 8 7 9 10 10 11 11 10 8 4 3 4 4 5 5 5 5 4 4
Wind_Direction
178 164 155 148 142 139 134 134 129 132 119 105 104 98 85 55 42 43 55 57 54 53 58 48 35 35 42 30 25 24 21 12 7 34 7 355 11 27 20 17 25 22 14
169 169 159 150 148 150 145 142 139 139 136 137 141 135 129 109 83 35 41 43 49 48 59 56 45 38 40 32 28 35 30 15 25 64 53 9 355 355 7 12 21 12 10
177 174 165 162 154 158 160 154 151 146 140 127 107 86 67 48 36 25 16 10 40 51 55 56 57 46 52 44 32 39 56 34 15 45 100 95 340 323 337 3 14 6 9
179 176 169 166 166 168 163 154 151 145 138 126 120 124 126 133 173 182 30 22 31 46 52 57 62 58 53 47 36 49 51 65 30 13 37 103 158 110 335 335 349 3 12
181 180 178 173 167 162 157 153 144 139 138 132 131 129 128 140 131 93 66 34 16 25 41 55 60 56 50 49 45 46 48 60 67 41 21 36 42 70 114 331 333 343 344
182 180 179 164 157 154 150 147 142 144 148 141 138 138 140 137 122 109 90 24 6 5 16 49 56 54 52 50 49 50 52 53 59 55 52 65 60 23 89 312 319 324 318
178 176 174 171 164 159 156 151 147 151 157 148 148 147 149 148 147 152 151 137 39 1 347 35 50 48 46 55 59 56 47 47 54 52 47 51 54 144 140 127 313 327 316
182 182 180 175 170 166 162 157 156 160 165 158 156 155 154 151 153 159 158 164 176 205 214 74 62 53 53 59 61 55 39 47 50 47 45 40 14 31 105 155 142 1 337
186 183 179 176 171 169 170 165 163 166 172 167 154 155 157 153 153 153 147 159 183 170 102 84 76 57 56 61 66 54 34 40 40 37 41 39 6 17 32 86 148 143 346
185 182 179 178 176 173 171 166 167 171 173 168 165 162 164 158 150 138 139 150 140 98 91 80 80 64 53 57 63 48 36 47 26 30 41 24 360 10 18 31 53 133 162
187 186 184 180 174 168 166 168 172 169 170 170 164 157 161 155 146 143 150 146 124 112 111 108 94 80 63 57 63 46 44 47 24 18 33 12 0 14 7 20 35 44 127
186 183 179 172 170 173 174 176 176 175 178 173 164 164 160 153 149 149 155 143 128 115 117 107 97 89 77 66 69 52 49 50 25 9 23 1 12 14 5 22 18 358 311
176 172 172 176 179 180 181 181 181 181 177 169 165 162 163 162 162 162 155 143 134 117 106 101 101 100 97 86 78 84 66 37 13 4 8 333 16 359 342 357 359 339 358
177 176 180 183 183 184 186 184 186 181 173 169 167 171 178 175 171 165 155 148 142 131 125 123 126 125 119 106 86 81 57 21 359 349 343 313 306 247 271 330 328 350 12
182 184 187 187 185 186 187 184 183 179 172 168 174 183 180 171 166 165 161 152 147 145 144 132 119 109 124 138 116 96 75 34 3 354 345 327 334 330 316 313 285 6 18
191 191 190 188 190 190 189 184 184 182 171 173 182 179 170 168 170 170 163 156 156 149 139 142 145 149 209 143 127 113 105 56 5 333 327 329 351 355 356 350 338 322 293
194 192 194 195 196 194 190 189 188 178 173 178 180 177 172 172 177 173 164 168 173 165 163 177 170 197 233 222 168 108 129 147 246 255 287 326 339 345 345 337 337 331 327
196 195 194 196 196 190 188 184 175 174 178 180 183 182 175 177 177 172 177 182 175 175 183 197 199 208 240 241 243 250 120 172 255 248 233 253 298 305 318 331 334 317 311
196 197 193 189 183 183 181 170 174 177 180 186 188 188 181 178 178 183 190 188 180 190 200 202 202 211 244 250 250 249 162 231 274 267 249 247 262 292 307 320 305 308 306
188 186 171 164 175 185 171 170 179 182 193 197 194 189 184 182 187 192 191 187 187 201 203 213 216 215 232 248 249 240 185 222 262 278 272 273 274 288 295 271 260 282 286
157 150 149 165 183 174 164 177 183 197 202 192 185 185 187 190 191 189 186 185 189 191 206 222 236 232 235 246 247 239 207 207 230 251 264 270 282 288 288 281 251 264 280
107 133 143 158 162 158 161 177 198 204 185 174 178 186 189 194 189 182 188 185 183 191 212 226 250 253 248 242 246 244 237 224 215 235 245 260 276 281 284 282 281 288 298
121 132 140 138 137 155 161 179 204 179 163 165 180 188 190 194 185 185 190 189 190 200 216 220 238 253 250 250 248 247 247 241 230 236 248 260 271 278 281 280 287 291 283
123 125 123 125 144 174 170 187 186 164 157 170 183 184 184 193 195 194 193 194 201 209 217 223 234 247 251 246 242 241 248 248 248 249 260 269 277 273 270 281 285 271 253
110 120 131 144 165 160 143 166 164 154 160 171 182 184 187 190 199 207 209 208 214 208 211 219 220 226 244 246 234 226 231 229 232 232 245 263 275 278 277 276 273 268 269
105 102 104 115 129 124 105 118 160 158 161 171 186 190 190 196 202 212 245 248 239 240 234 233 229 234 240 250 243 239 241 240 235 221 234 245 248 252 256 260 265 263 259